TimePDT,TemperatureF,Dew PointF,Humidity,Sea Level PressureIn,VisibilityMPH,Wind Direction,Wind SpeedMPH,Gust SpeedMPH,PrecipitationIn,Events,Conditions,WindDirDegrees,DateUTC
12:55 AM,50.0,35.1,57,30.10,10.0,NW,10.4,-,N/A,,Clear,320,2013-03-29 07:55:00
1:55 AM,48.9,34.0,56,30.11,10.0,WNW,8.1,-,N/A,,Clear,300,2013-03-29 08:55:00
2:55 AM,46.9,34.0,61,30.12,10.0,NW,9.2,-,N/A,,Clear,320,2013-03-29 09:55:00
3:55 AM,46.9,34.0,61,30.12,10.0,NW,9.2,-,N/A,,Clear,310,2013-03-29 10:55:00
4:55 AM,46.0,33.1,61,30.13,10.0,NW,12.7,-,N/A,,Clear,320,2013-03-29 11:55:00
5:55 AM,42.1,33.1,70,30.15,10.0,SSW,4.6,-,N/A,,Scattered Clouds,210,2013-03-29 12:55:00
6:55 AM,41.0,33.1,73,30.17,10.0,West,5.8,-,N/A,,Overcast,270,2013-03-29 13:55:00
7:55 AM,43.0,33.1,68,30.19,10.0,NNW,8.1,-,N/A,,Clear,330,2013-03-29 14:55:00
8:55 AM,46.9,34.0,61,30.19,10.0,WSW,8.1,-,N/A,,Clear,250,2013-03-29 15:55:00
9:55 AM,48.0,35.1,61,30.19,10.0,Variable,3.5,-,N/A,,Mostly Cloudy,0,2013-03-29 16:55:00
10:55 AM,51.1,34.0,52,30.19,10.0,WSW,3.5,-,N/A,,Overcast,240,2013-03-29 17:55:00
11:55 AM,55.0,34.0,45,30.19,10.0,Calm,Calm,-,N/A,,Overcast,0,2013-03-29 18:55:00
12:55 PM,60.1,33.1,36,30.17,10.0,Calm,Calm,-,N/A,,Partly Cloudy,0,2013-03-29 19:55:00
1:55 PM,63.0,32.0,31,30.16,10.0,SSW,4.6,-,N/A,,Mostly Cloudy,200,2013-03-29 20:55:00
2:55 PM,62.1,30.9,31,30.15,10.0,Variable,6.9,-,N/A,,Scattered Clouds,0,2013-03-29 21:55:00
3:55 PM,64.0,30.9,29,30.13,10.0,South,6.9,-,N/A,,Partly Cloudy,170,2013-03-29 22:55:00
4:55 PM,64.9,30.9,28,30.12,10.0,East,8.1,-,N/A,,Clear,100,2013-03-29 23:55:00
5:55 PM,64.0,32.0,30,30.12,10.0,ESE,5.8,-,N/A,,Clear,110,2013-03-30 00:55:00
6:55 PM,62.1,32.0,32,30.12,10.0,ESE,4.6,-,N/A,,Clear,120,2013-03-30 01:55:00
7:55 PM,55.9,33.1,42,30.14,10.0,NE,3.5,-,N/A,,Clear,40,2013-03-30 02:55:00
8:55 PM,54.0,33.1,45,30.17,10.0,NNW,5.8,-,N/A,,Clear,340,2013-03-30 03:55:00
9:55 PM,54.0,30.9,41,30.19,10.0,NNW,5.8,-,N/A,,Clear,340,2013-03-30 04:55:00
11:55 PM,51.1,33.1,50,30.21,10.0,NW,8.1,-,N/A,,Clear,310,2013-03-30 06:55:00